EW4685 Weather Reports


Display with metric or nautical units.
time (UTC)temp
F
wind
direction
speed
MPH
gust
MPH
rain 1hr
in
rain 24hr
in
rain mn
in
humidity
%
barometer
mb
20260508231512 51 294 0.0 0.0 0.00 0.00 0.00 82 1025.2
20260508231013 50 299 0.0 0.0 0.00 0.00 0.00 83 1025.2
20260508230512 49 276 0.0 0.0 0.00 0.00 0.00 84 1025.2
20260508230009 49 276 0.0 0.0 0.00 0.00 0.00 85 1025.2
20260508225508 49 304 0.0 0.0 0.00 0.00 0.00 87 1025.2
20260508225008 48 304 0.0 0.0 0.00 0.00 0.00 89 1025.2
20260508224509 47 332 0.0 0.0 0.00 0.00 0.00 92 1025.1
20260508224008 47 297 0.0 0.0 0.00 0.00 0.00 93 1025.1
20260508223508 46 297 0.0 0.0 0.00 0.00 0.00 95 1024.9
20260508223008 46 308 0.0 0.0 0.00 0.00 0.00 96 1024.8
20260508222508 45 59 0.0 0.0 0.00 0.00 0.00 96 1024.7
20260508222008 45 62 0.0 0.0 0.00 0.00 0.00 96 1024.7
20260508221501 45 62 0.0 0.0 0.00 0.00 0.00 96 1024.6
20260508220956 44 62 0.0 0.0 0.00 0.00 0.00 96 1024.6
20260508220456 43 62 0.0 0.0 0.00 0.00 0.00 96 1024.6
20260508215954 42 62 0.0 0.0 0.00 0.00 0.00 96 1024.6
20260508215457 41 62 0.0 0.0 0.00 0.00 0.00 96 1024.5
20260508214953 41 62 0.0 0.0 0.00 0.00 0.00 95 1024.4
20260508214452 40 63 0.0 0.0 0.00 0.00 0.00 95 1024.4
20260508213949 40 62 0.0 0.0 0.00 0.00 0.00 95 1024.4
20260508213452 40 63 0.0 0.0 0.00 0.00 0.00 95 1024.4
20260508213209 40 62 0.0 0.0 0.00 0.00 0.00 95 1024.3
20260508212449 40 62 0.0 0.0 0.00 0.00 0.00 95 1024.4
20260508212424 40 63 0.0 0.0 0.00 0.00 0.00 95 1024.3
20260508211445 40 62 0.0 0.0 0.00 0.00 0.00 95 1024.2
20260508210942 40 63 0.0 0.0 0.00 0.00 0.00 95 1024.2
20260508210440 40 63 0.0 0.0 0.00 0.00 0.00 95 1024.1
20260508205942 40 63 0.0 0.0 0.00 0.00 0.00 95 1024.0
20260508205440 40 63 0.0 0.0 0.00 0.00 0.00 95 1023.9
20260508204937 40 63 0.0 0.0 0.00 0.00 0.00 95 1023.9
20260508204439 39 63 0.0 0.0 0.00 0.00 0.00 94 1023.8
20260508203937 39 63 0.0 0.0 0.00 0.00 0.00 94 1023.7
20260508203437 40 63 0.0 0.0 0.00 0.00 0.00 94 1023.7
20260508203200 40 63 0.0 0.0 0.00 0.00 0.00 94 1023.6
20260508202425 40 63 0.0 0.0 0.00 0.00 0.00 94 1023.5
20260508201920 40 63 0.0 0.0 0.00 0.00 0.00 94 1023.4
20260508201412 41 63 0.0 0.0 0.00 0.00 0.00 94 1023.2
20260508200908 41 63 0.0 0.0 0.00 0.00 0.00 94 1023.1
20260508200401 41 63 0.0 0.0 0.00 0.00 0.00 94 1023.1
20260508195855 41 63 0.0 0.0 0.00 0.00 0.00 94 1023.1
20260508195351 41 63 0.0 0.0 0.00 0.00 0.00 94 1023.0
20260508194844 41 63 0.0 0.0 0.00 0.00 0.00 94 1022.9
20260508194342 41 63 0.0 0.0 0.00 0.00 0.00 94 1022.9
20260508194053 41 63 0.0 0.0 0.00 0.00 0.00 94 1022.9
20260508193552 41 62 0.0 0.0 0.00 0.00 0.00 94 1022.8
20260508192820 41 63 0.0 0.0 0.00 0.00 0.00 94 1022.8
20260508192313 41 63 0.0 0.0 0.00 0.00 0.00 93 1022.7
20260508191809 42 63 0.0 0.0 0.00 0.00 0.00 93 1022.7
20260508191302 42 63 0.0 0.0 0.00 0.00 0.00 93 1022.7
20260508190755 42 63 0.0 0.0 0.00 0.00 0.00 93 1022.6
20260508190249 42 63 0.0 0.0 0.00 0.00 0.00 93 1022.5
20260508185743 43 63 0.0 0.0 0.00 0.00 0.00 93 1022.6
20260508185238 43 63 0.0 0.0 0.00 0.00 0.00 93 1022.5
20260508184731 43 62 0.0 0.0 0.00 0.00 0.00 93 1022.5
20260508184225 43 63 0.0 0.0 0.00 0.00 0.00 93 1022.5
20260508183719 43 63 0.0 0.0 0.00 0.00 0.00 93 1022.5
20260508183215 43 63 0.0 0.0 0.00 0.00 0.00 92 1022.5
20260508182710 43 63 0.0 1.0 0.00 0.00 0.00 93 1022.4
20260508182203 43 63 0.0 1.0 0.00 0.00 0.00 92 1022.4
20260508181656 43 63 0.0 0.0 0.00 0.00 0.00 92 1022.4
20260508181151 43 63 0.0 0.0 0.00 0.00 0.00 92 1022.3
20260508180644 44 62 0.0 0.0 0.00 0.00 0.00 92 1022.4
20260508180139 44 62 0.0 0.0 0.00 0.00 0.00 92 1022.3
20260508175633 44 63 0.0 0.0 0.00 0.00 0.00 92 1022.3
20260508175127 44 62 0.0 0.0 0.00 0.00 0.00 92 1022.2
20260508174621 44 63 0.0 0.0 0.00 0.00 0.00 91 1022.2
20260508174115 44 63 0.0 0.0 0.00 0.00 0.00 91 1022.2
20260508173608 45 62 0.0 2.0 0.00 0.00 0.00 92 1022.2
20260508173101 45 63 0.0 2.0 0.00 0.00 0.00 93 1022.2
20260508172554 44 45 0.0 2.0 0.00 0.00 0.00 92 1022.2
20260508172049 44 51 0.0 0.0 0.00 0.00 0.00 91 1022.3
20260508171542 44 51 0.0 0.0 0.00 0.00 0.00 91 1022.2
20260508171304 44 51 0.0 0.0 0.00 0.00 0.00 91 1022.2
20260508170531 44 51 0.0 0.0 0.00 0.00 0.00 90 1022.2
20260508170026 45 51 0.0 0.0 0.00 0.00 0.00 90 1022.3
20260508165520 45 51 0.0 0.0 0.00 0.00 0.00 90 1022.2
20260508165453 45 51 0.0 0.0 0.00 0.00 0.00 89 1022.3
20260508164507 46 51 0.0 0.0 0.00 0.00 0.00 89 1022.3
20260508164221 46 51 0.0 0.0 0.00 0.00 0.00 89 1022.2
20260508163721 46 51 0.0 0.0 0.00 0.00 0.00 88 1022.2
20260508162949 47 51 0.0 0.0 0.00 0.00 0.00 87 1022.1
20260508162444 47 51 0.0 0.0 0.00 0.00 0.00 87 1022.1
20260508161942 47 51 0.0 0.0 0.00 0.00 0.00 86 1022.1
20260508161439 48 51 0.0 0.0 0.00 0.00 0.00 86 1022.2
20260508160927 48 51 0.0 0.0 0.00 0.00 0.00 86 1022.2
20260508160420 49 51 0.0 0.0 0.00 0.00 0.00 85 1022.1
20260508155918 49 51 0.0 0.0 0.00 0.00 0.00 85 1022.1
20260508155407 49 51 0.0 0.0 0.00 0.00 0.00 85 1022.1
20260508154903 49 51 0.0 0.0 0.00 0.00 0.00 85 1022.1
20260508154356 49 51 0.0 0.0 0.00 0.00 0.00 85 1022.1
20260508153851 49 51 0.0 0.0 0.00 0.00 0.00 84 1022.1
20260508153343 50 51 0.0 0.0 0.00 0.00 0.00 84 1022.1
20260508152837 50 51 0.0 0.0 0.00 0.00 0.00 84 1022.0
20260508152331 50 51 0.0 0.0 0.00 0.00 0.00 83 1022.0
20260508151825 50 51 0.0 0.0 0.00 0.00 0.00 83 1022.0
20260508151320 50 51 0.0 0.0 0.00 0.00 0.00 83 1022.0
20260508150819 50 51 0.0 0.0 0.00 0.00 0.00 83 1022.0
20260508150313 50 51 0.0 0.0 0.00 0.00 0.00 83 1022.0
20260508145812 50 51 0.0 0.0 0.00 0.00 0.00 83 1022.1
20260508145309 50 51 0.0 0.0 0.00 0.00 0.00 83 1022.0
20260508144807 50 38 0.0 0.0 0.00 0.00 0.00 83 1022.0
20260508144304 50 352 0.0 0.0 0.00 0.00 0.00 82 1021.9
20260508143802 50 47 0.0 0.0 0.00 0.00 0.00 82 1021.8
20260508143302 50 303 0.0 0.0 0.00 0.00 0.00 82 1021.8
20260508142800 50 303 0.0 0.0 0.00 0.00 0.00 82 1021.9
20260508142300 50 57 0.0 0.0 0.00 0.00 0.00 82 1021.8
20260508141800 50 57 0.0 1.0 0.00 0.00 0.00 82 1021.9
20260508141259 50 57 0.0 1.0 0.00 0.00 0.00 82 1021.8
20260508140758 50 37 0.0 0.0 0.00 0.00 0.00 81 1021.7
20260508140259 50 33 0.0 1.0 0.00 0.00 0.00 81 1021.7
20260508135800 50 30 0.0 1.0 0.00 0.00 0.00 81 1021.7
20260508135254 50 31 0.0 0.0 0.00 0.00 0.00 81 1021.5
20260508134748 50 21 0.0 0.0 0.00 0.00 0.00 81 1021.5
20260508134241 50 14 0.0 0.0 0.00 0.00 0.00 80 1021.4
20260508133737 50 74 0.0 0.0 0.00 0.00 0.00 80 1021.5
20260508133231 50 74 0.0 0.0 0.00 0.00 0.00 80 1021.5
20260508132945 50 74 0.0 0.0 0.00 0.00 0.00 80 1021.5
20260508132217 50 74 0.0 0.0 0.00 0.00 0.00 79 1021.5
20260508131711 50 74 0.0 0.0 0.00 0.00 0.00 79 1021.5
20260508131207 51 74 0.0 0.0 0.00 0.00 0.00 79 1021.5
20260508130700 51 74 0.0 0.0 0.00 0.00 0.00 79 1021.7
20260508130154 51 74 0.0 0.0 0.00 0.00 0.00 79 1021.5
20260508125648 50 298 0.0 0.0 0.00 0.00 0.00 79 1021.5
20260508125143 50 308 0.0 2.0 0.00 0.00 0.00 79 1021.5
20260508124855 50 39 0.0 2.0 0.00 0.00 0.00 79 1021.5
20260508124346 50 45 0.0 0.0 0.00 0.00 0.00 79 1021.5
20260508123623 50 38 0.0 0.0 0.00 0.00 0.00 79 1021.5
20260508123117 50 45 0.0 1.0 0.00 0.00 0.00 78 1021.4
20260508122618 50 14 0.0 1.0 0.00 0.00 0.00 78 1021.5
20260508122333 51 40 0.0 1.0 0.00 0.00 0.00 78 1021.4
20260508121600 51 18 0.0 1.0 0.00 0.00 0.00 77 1021.4
20260508121054 51 283 0.0 1.0 0.00 0.00 0.00 77 1021.4
20260508120549 51 22 0.0 1.0 0.00 0.00 0.00 77 1021.4
20260508120300 51 355 0.0 2.0 0.00 0.00 0.00 77 1021.4
20260508115535 51 19 0.0 2.0 0.00 0.00 0.00 77 1021.4
20260508115031 51 42 0.0 0.0 0.00 0.00 0.00 76 1021.4
20260508114524 51 41 0.0 0.0 0.00 0.00 0.00 76 1021.4
20260508114018 51 42 0.0 3.0 0.00 0.00 0.00 76 1021.4
20260508113514 51 42 0.0 3.0 0.00 0.00 0.00 75 1021.3
20260508113005 51 336 0.0 1.0 0.00 0.00 0.00 75 1021.3
20260508112720 51 335 0.0 1.0 0.00 0.00 0.00 75 1021.3
20260508111953 52 7 0.0 3.0 0.00 0.00 0.00 74 1021.3
20260508111447 52 21 0.0 3.0 0.00 0.00 0.00 74 1021.3
20260508110941 52 14 0.0 3.0 0.00 0.00 0.00 74 1021.3
20260508110654 52 22 0.0 3.0 0.00 0.00 0.00 74 1021.3
20260508105934 52 34 0.0 1.0 0.00 0.00 0.00 74 1021.3
20260508105424 52 339 0.0 0.0 0.00 0.00 0.00 74 1021.3
20260508104919 52 339 0.0 0.0 0.00 0.00 0.00 73 1021.2
20260508104413 52 338 0.0 0.0 0.00 0.00 0.00 73 1021.2
20260508103905 52 320 0.0 1.0 0.00 0.00 0.00 73 1021.3
20260508103617 52 289 0.0 1.0 0.00 0.00 0.00 73 1021.2
20260508103118 52 303 0.0 1.0 0.00 0.00 0.00 73 1021.2
20260508102348 52 19 0.0 1.0 0.00 0.00 0.00 73 1021.3
20260508101848 52 331 0.0 2.0 0.00 0.00 0.00 73 1021.2
20260508101819 52 306 0.0 2.0 0.00 0.00 0.00 73 1021.1
20260508100830 52 293 0.0 1.0 0.00 0.00 0.00 72 1021.1
20260508100323 52 313 0.0 3.0 0.00 0.00 0.00 72 1021.1
20260508100316 51 349 0.0 4.0 0.00 0.00 0.00 72 1021.0
20260508095320 51 337 0.0 4.0 0.00 0.00 0.00 72 1020.9
20260508094819 51 273 0.0 0.0 0.00 0.00 0.00 73 1020.9
20260508094320 51 296 0.0 3.0 0.00 0.00 0.00 73 1020.8
20260508093908 51 334 0.0 3.0 0.00 0.00 0.00 73 1020.8
20260508093036 50 27 0.0 0.0 0.00 0.00 0.00 73 1020.8
20260508092800 50 345 0.0 1.0 0.00 0.00 0.00 74 1020.6
20260508091813 50 292 0.0 1.0 0.00 0.00 0.00 74 1020.6
20260508091313 49 61 0.0 0.0 0.00 0.00 0.00 75 1020.6
20260508090813 49 61 0.0 2.0 0.00 0.00 0.00 75 1020.6
20260508090313 49 319 0.0 2.0 0.00 0.00 0.00 75 1020.5
20260508085810 49 96 0.0 0.0 0.00 0.00 0.00 74 1020.3
20260508085309 49 96 0.0 0.0 0.00 0.00 0.00 74 1020.3
20260508084809 49 96 0.0 0.0 0.00 0.00 0.00 73 1020.2
20260508084309 50 96 0.0 0.0 0.00 0.00 0.00 72 1020.2
20260508083811 50 96 0.0 0.0 0.00 0.00 0.00 72 1019.9
20260508083535 50 289 0.0 0.0 0.00 0.00 0.00 71 1019.7
20260508082808 51 289 0.0 2.0 0.00 0.00 0.00 70 1019.7
20260508082758 51 289 0.0 2.0 0.00 0.00 0.00 69 1019.7
20260508081809 51 310 0.0 2.0 0.00 0.00 0.00 69 1019.6
20260508081305 51 63 0.0 0.0 0.00 0.00 0.00 68 1019.5
20260508080806 52 315 0.0 0.0 0.00 0.00 0.00 67 1019.4
20260508080304 52 335 0.0 1.0 0.00 0.00 0.00 67 1019.3
20260508075805 52 292 0.0 3.0 0.00 0.00 0.00 66 1019.2
20260508075308 52 280 0.0 3.0 0.00 0.00 0.00 66 1019.1
20260508074806 53 263 0.0 3.0 0.00 0.00 0.00 65 1019.0
20260508074305 53 211 0.0 2.0 0.00 0.00 0.00 65 1018.9
20260508073805 53 211 0.0 2.0 0.00 0.00 0.00 64 1018.9
20260508073303 53 263 0.0 4.0 0.00 0.00 0.00 64 1018.8
20260508072803 53 226 0.0 6.0 0.00 0.00 0.00 64 1018.7
20260508072307 53 272 0.0 6.0 0.00 0.00 0.00 63 1018.6
20260508071750 54 52 0.0 6.0 0.00 0.00 0.00 63 1018.5
20260508071246 54 299 0.0 3.0 0.00 0.00 0.00 62 1018.4
20260508070737 55 237 0.0 4.0 0.00 0.00 0.00 61 1018.2
20260508070232 55 98 0.0 4.0 0.00 0.00 0.00 60 1018.1
20260508065726 56 196 0.0 4.0 0.00 0.00 0.00 59 1018.0
20260508065227 56 268 0.0 7.0 0.00 0.00 0.00 58 1018.0
20260508064947 57 223 0.0 7.0 0.00 0.00 0.00 58 1017.9
20260508064226 57 317 0.0 7.0 0.00 0.00 0.00 57 1017.8
20260508063727 58 211 1.0 6.0 0.00 0.00 0.00 55 1017.7
20260508063227 58 287 0.0 7.0 0.00 0.00 0.00 55 1017.7
20260508062726 59 247 0.0 8.0 0.00 0.00 0.00 54 1017.5
20260508062442 59 280 1.0 8.0 0.00 0.00 0.00 54 1017.5
20260508061724 59 269 0.0 6.0 0.00 0.00 0.00 54 1017.4
20260508061223 59 320 1.0 6.0 0.00 0.00 0.00 54 1017.3
20260508060721 59 306 2.0 10.0 0.00 0.00 0.00 54 1017.3
20260508060221 59 294 2.0 10.0 0.00 0.00 0.00 54 1017.3
20260508055722 60 302 1.0 5.0 0.00 0.00 0.00 53 1017.2
20260508055219 60 206 1.0 7.0 0.00 0.00 0.00 53 1017.1
20260508054719 60 287 1.0 7.0 0.00 0.00 0.00 52 1017.1
20260508054218 60 261 0.0 5.0 0.00 0.00 0.00 53 1017.1
20260508053718 60 287 1.0 6.0 0.00 0.00 0.00 53 1017.0
20260508053219 60 268 1.0 6.0 0.00 0.00 0.00 53 1016.9
20260508052720 60 321 1.0 7.0 0.00 0.00 0.00 53 1016.8
20260508052213 60 251 1.0 7.0 0.00 0.00 0.00 52 1016.8
20260508051706 60 228 1.0 10.0 0.00 0.00 0.00 52 1016.8
20260508051646 60 228 1.0 10.0 0.00 0.00 0.00 52 1016.8
20260508050653 60 237 1.0 9.0 0.00 0.00 0.00 51 1016.7
20260508050148 61 281 1.0 5.0 0.00 0.00 0.00 50 1016.5
20260508045641 61 247 2.0 9.0 0.00 0.00 0.00 51 1016.5
20260508045136 61 239 2.0 9.0 0.00 0.00 0.00 50 1016.5
20260508044634 61 228 2.0 11.0 0.00 0.00 0.00 50 1016.5
20260508044123 61 254 1.0 11.0 0.00 0.00 0.00 49 1016.5
20260508043617 62 241 2.0 12.0 0.00 0.00 0.00 49 1016.5
20260508043111 61 218 2.0 13.0 0.00 0.00 0.00 50 1016.4
20260508042606 61 232 1.0 13.0 0.00 0.00 0.00 49 1016.4
20260508042321 61 242 1.0 9.0 0.00 0.00 0.00 49 1016.4
20260508041553 61 247 2.0 9.0 0.00 0.00 0.00 49 1016.3
20260508041048 61 219 3.0 13.0 0.00 0.00 0.00 50 1016.3
20260508040542 61 214 5.0 14.0 0.00 0.00 0.00 48 1016.3
20260508040038 61 226 5.0 15.0 0.00 0.00 0.00 48 1016.3
20260508035756 61 179 4.0 14.0 0.00 0.00 0.00 48 1016.2
20260508035020 61 232 2.0 13.0 0.00 0.00 0.00 47 1016.1
20260508034516 62 298 2.0 14.0 0.00 0.00 0.00 49 1016.2
20260508034008 61 262 2.0 14.0 0.00 0.00 0.00 48 1016.0
20260508033502 61 258 1.0 9.0 0.00 0.00 0.00 47 1016.0
20260508032957 61 218 2.0 11.0 0.00 0.00 0.00 49 1016.1
20260508032712 61 251 2.0 13.0 0.00 0.00 0.00 48 1016.0
20260508032208 61 189 2.0 13.0 0.00 0.00 0.00 46 1016.0
20260508031523 61 237 2.0 12.0 0.00 0.00 0.00 48 1016.0
20260508030427 61 258 2.0 7.0 0.00 0.00 0.00 54 1016.0
20260508025919 60 242 2.0 7.0 0.00 0.00 0.00 54 1016.1
20260508025416 61 328 1.0 7.0 0.00 0.00 0.00 50 1016.3
20260508025134 61 264 1.0 8.0 0.00 0.00 0.00 49 1016.3
20260508024632 61 220 2.0 10.0 0.00 0.00 0.00 48 1016.3
20260508024343 61 256 3.0 11.0 0.00 0.00 0.00 49 1016.4
20260508023353 61 227 2.0 11.0 0.00 0.00 0.00 48 1016.4
20260508022847 60 216 1.0 7.0 0.00 0.00 0.00 51 1016.5
20260508022340 60 231 1.0 6.0 0.00 0.00 0.00 55 1016.5
20260508021835 60 216 1.0 6.0 0.00 0.00 0.00 52 1016.7
20260508021328 59 239 1.0 7.0 0.00 0.00 0.00 59 1016.9
20260508020822 58 263 2.0 7.0 0.00 0.00 0.00 57 1016.8
20260508020322 58 244 2.0 7.0 0.00 0.00 0.00 58 1016.8
20260508015809 58 245 2.0 8.0 0.00 0.00 0.00 59 1016.9
20260508015306 57 275 3.0 9.0 0.00 0.00 0.00 61 1016.9
20260508014759 57 300 3.0 9.0 0.00 0.00 0.00 60 1016.9
20260508014301 57 14 3.0 11.0 0.00 0.00 0.00 61 1016.9
20260508013756 57 282 2.0 11.0 0.00 0.00 0.00 61 1017.0
20260508013256 57 314 2.0 9.0 0.00 0.00 0.00 61 1017.0
20260508012754 56 7 2.0 9.0 0.00 0.00 0.00 63 1017.2
20260508012254 56 291 3.0 10.0 0.00 0.00 0.00 66 1017.1
20260508011755 55 13 3.0 10.0 0.00 0.00 0.00 67 1017.3
20260508011254 55 277 3.0 9.0 0.00 0.00 0.00 66 1017.3
20260508011013 55 355 2.0 9.0 0.00 0.00 0.00 67 1017.4
20260508010255 54 284 3.0 8.0 0.00 0.00 0.00 67 1017.5
20260508005754 54 329 4.0 10.0 0.00 0.00 0.00 66 1017.5
20260508005255 54 21 4.0 11.0 0.00 0.00 0.00 66 1017.5
20260508004754 54 301 2.0 11.0 0.00 0.00 0.00 66 1017.5
20260508004254 54 298 3.0 8.0 0.00 0.00 0.00 67 1017.5
20260508003755 54 25 3.0 8.0 0.00 0.00 0.00 66 1017.5
20260508003254 54 10 2.0 8.0 0.00 0.00 0.00 65 1017.6
20260508002755 55 22 2.0 7.0 0.00 0.00 0.00 64 1017.6
20260508002251 55 346 2.0 8.0 0.00 0.00 0.00 64 1017.6
20260508001746 55 51 2.0 8.0 0.00 0.00 0.00 63 1017.6
20260508001246 55 340 2.0 7.0 0.00 0.00 0.00 63 1017.5
20260508000746 55 328 2.0 6.0 0.00 0.00 0.00 65 1017.6
20260508000243 54 311 1.0 8.0 0.00 0.00 0.00 65 1017.5
20260507235743 54 22 2.0 8.0 0.00 0.00 0.00 65 1017.5
20260507235243 53 38 1.0 7.0 0.00 0.00 0.00 67 1017.6
20260507234743 53 323 1.0 7.0 0.00 0.00 0.00 68 1017.7
20260507234737 52 348 2.0 9.0 0.00 0.00 0.00 69 1017.7
20260507234000 52 19 3.0 9.0 0.00 0.00 0.00 70 1017.7
20260507233242 51 4 3.0 10.0 0.00 0.00 0.00 70 1017.6
20260507232742 51 65 3.0 10.0 0.00 0.00 0.00 71 1017.7
20260507232239 51 317 4.0 10.0 0.00 0.00 0.00 71 1017.7
20260507231738 51 48 4.0 10.0 0.00 0.00 0.00 70 1017.8